Tracking 19199 objects as of 25-Jun-2018
HD Live streaming from Space Station
objects crossing your sky now

ARIANE 42L+3 R/B

Track ARIANE 42L+3 R/B now!


NORAD ID: 23687
Int'l Code: 1995-055B
Perigee: 493.2 km
Apogee: 36,450.7 km
Inclination: 5.1 °
Period: 649.5 minutes
Semi major axis: 24842 km
RCS: 19.8634 m2 (large)
Launch date: October 19, 1995
Source: France (FR)
Launch site: FRENCH GUIANA (FRGUI)

Note: This is a ROCKET BODY
aabbcc
Your satellite tracking list
Your tracking list is empty




NASA's NSSDC Master Catalog

Two Line Element Set (TLE):
1 23687U 95055B   18175.30175548 -.00000048  00000-0  38701-3 0  9990
2 23687   5.1039 292.0748 7236964 301.0878   7.8119  2.21716612183301
Source of the keplerian elements: AFSPC